�������l�o���
Date,Time,MP-1(��Sv/h),MP-2(��Sv/h),MP-3(��Sv/h),MP-4(��Sv/h),MP-5(��Sv/h),MP-6(��Sv/h),MP-7(��Sv/h),MP-8(��Sv/h),����,����(m/s),���J
2024/06/09,00:00,0.503,0.774,0.487,0.953,0.699,0.318,0.551,0.508,��,6.2,��
2024/06/09,00:10,0.503,0.775,0.487,0.951,0.701,0.317,0.550,0.507,��,5.9,��
2024/06/09,00:20,0.502,0.771,0.486,0.953,0.701,0.317,0.551,0.509,��,6.1,��
2024/06/09,00:30,0.504,0.772,0.485,0.952,0.701,0.316,0.551,0.508,��,7.2,��
2024/06/09,00:40,0.504,0.773,0.487,0.953,0.700,0.317,0.552,0.508,��,7.2,��
2024/06/09,00:50,0.503,0.774,0.487,0.951,0.699,0.316,0.551,0.508,��,7.7,��
2024/06/09,01:00,0.504,0.775,0.488,0.951,0.701,0.317,0.552,0.507,��,6.7,��
2024/06/09,01:10,0.503,0.772,0.486,0.952,0.700,0.316,0.552,0.509,��,6.4,��
2024/06/09,01:20,0.504,0.774,0.487,0.953,0.701,0.316,0.551,0.508,��,6.7,��
2024/06/09,01:30,0.504,0.772,0.486,0.952,0.699,0.316,0.550,0.509,��,6.6,��
2024/06/09,01:40,0.503,0.773,0.485,0.952,0.700,0.316,0.552,0.508,��,7.0,��
2024/06/09,01:50,0.503,0.773,0.486,0.953,0.701,0.316,0.552,0.508,��,6.6,��
2024/06/09,02:00,0.504,0.772,0.487,0.953,0.697,0.316,0.552,0.508,��,5.6,��
2024/06/09,02:10,0.504,0.772,0.485,0.951,0.702,0.315,0.553,0.509,��,5.9,��
2024/06/09,02:20,0.503,0.775,0.486,0.951,0.700,0.316,0.552,0.509,��,7.2,��
2024/06/09,02:30,0.503,0.773,0.488,0.951,0.700,0.316,0.553,0.508,��,7.3,��
2024/06/09,02:40,0.502,0.774,0.486,0.951,0.702,0.318,0.552,0.510,��,7.2,��
2024/06/09,02:50,0.503,0.774,0.486,0.952,0.700,0.315,0.552,0.508,��쓌,7.4,��
2024/06/09,03:00,0.504,0.772,0.485,0.954,0.701,0.315,0.552,0.509,��,6.8,��
2024/06/09,03:10,0.502,0.776,0.486,0.952,0.698,0.316,0.553,0.509,��,7.7,��
2024/06/09,03:20,0.503,0.776,0.485,0.950,0.701,0.317,0.552,0.510,��,7.0,��
2024/06/09,03:30,0.502,0.772,0.485,0.950,0.699,0.317,0.553,0.507,��,7.1,��
2024/06/09,03:40,0.503,0.772,0.486,0.951,0.699,0.317,0.553,0.509,��,7.4,��
2024/06/09,03:50,0.502,0.773,0.486,0.952,0.702,0.316,0.553,0.508,��,6.5,��
2024/06/09,04:00,0.503,0.772,0.485,0.953,0.700,0.315,0.553,0.507,��,6.4,��
2024/06/09,04:10,0.503,0.772,0.487,0.951,0.700,0.316,0.553,0.508,��,5.3,��
2024/06/09,04:20,0.503,0.772,0.487,0.953,0.701,0.316,0.553,0.508,��,5.2,��
2024/06/09,04:30,0.502,0.773,0.487,0.950,0.699,0.317,0.553,0.508,��,5.5,��
2024/06/09,04:40,0.502,0.775,0.486,0.951,0.700,0.316,0.554,0.510,��,5.9,��
2024/06/09,04:50,0.502,0.773,0.487,0.953,0.700,0.316,0.553,0.508,��,6.7,��
2024/06/09,05:00,0.502,0.775,0.485,0.951,0.699,0.316,0.552,0.510,��쓌,7.9,��
2024/06/09,05:10,0.503,0.773,0.486,0.951,0.698,0.316,0.554,0.509,��,6.9,��
2024/06/09,05:20,0.503,0.773,0.486,0.951,0.701,0.317,0.554,0.508,��,6.9,��
2024/06/09,05:30,0.502,0.774,0.486,0.950,0.700,0.315,0.555,0.508,��,6.6,��
2024/06/09,05:40,0.502,0.772,0.486,0.951,0.701,0.316,0.553,0.508,��,6.0,��
2024/06/09,05:50,0.502,0.773,0.484,0.951,0.699,0.316,0.554,0.509,��,7.0,��
2024/06/09,06:00,0.503,0.774,0.486,0.952,0.700,0.316,0.554,0.508,��,7.3,��
2024/06/09,06:10,0.503,0.774,0.486,0.951,0.700,0.316,0.555,0.510,��쓌,6.3,��
2024/06/09,06:20,0.503,0.772,0.488,0.951,0.699,0.315,0.553,0.509,��,6.3,��
2024/06/09,06:30,0.502,0.772,0.485,0.951,0.700,0.314,0.553,0.511,��,6.6,��
2024/06/09,06:40,0.501,0.773,0.486,0.952,0.701,0.316,0.553,0.509,��쓌,7.5,��
2024/06/09,06:50,0.503,0.771,0.486,0.951,0.700,0.314,0.553,0.509,��,6.5,��
2024/06/09,07:00,0.504,0.772,0.485,0.951,0.701,0.314,0.553,0.507,��,5.9,��
2024/06/09,07:10,0.501,0.772,0.486,0.952,0.699,0.314,0.553,0.508,��,5.5,��
2024/06/09,07:20,0.502,0.772,0.485,0.949,0.699,0.315,0.553,0.507,��,5.2,��
2024/06/09,07:30,0.501,0.772,0.487,0.951,0.699,0.314,0.554,0.508,��쓌,5.9,��
2024/06/09,07:40,0.499,0.769,0.484,0.950,0.700,0.314,0.551,0.507,��,5.9,��
2024/06/09,07:50,0.501,0.773,0.486,0.953,0.698,0.313,0.554,0.507,��쓌,5.1,��
2024/06/09,08:00,0.500,0.772,0.485,0.952,0.699,0.314,0.553,0.507,��,6.2,��
2024/06/09,08:10,0.501,0.772,0.485,0.953,0.699,0.314,0.551,0.507,��쓌,8.2,��
2024/06/09,08:20,0.501,0.773,0.485,0.952,0.698,0.315,0.552,0.505,��쓌,9.1,��
2024/06/09,08:30,0.502,0.772,0.487,0.951,0.700,0.314,0.551,0.505,��쓌,7.9,��
2024/06/09,08:40,0.500,0.771,0.485,0.952,0.698,0.316,0.553,0.507,��쓌,8.8,��
2024/06/09,08:50,0.502,0.771,0.485,0.953,0.698,0.314,0.552,0.507,��쓌,10.3,��
2024/06/09,09:00,0.502,0.775,0.484,0.952,0.699,0.314,0.554,0.508,��쓌,8.9,��
2024/06/09,09:10,0.501,0.772,0.485,0.953,0.698,0.315,0.553,0.506,��,8.3,��
2024/06/09,09:20,0.503,0.772,0.485,0.952,0.698,0.315,0.552,0.507,��쓌,9.5,��
2024/06/09,09:30,0.504,0.771,0.485,0.952,0.698,0.315,0.552,0.504,��쓌,9.8,��
2024/06/09,09:40,0.503,0.772,0.484,0.953,0.699,0.317,0.553,0.507,��쓌,9.2,��
2024/06/09,09:50,0.503,0.773,0.485,0.954,0.700,0.315,0.553,0.507,��쓌,9.6,��
2024/06/09,10:00,0.503,0.770,0.486,0.951,0.698,0.314,0.551,0.507,��쓌,8.5,��
2024/06/09,10:10,0.502,0.773,0.485,0.955,0.699,0.315,0.554,0.508,��쓌,9.2,��
2024/06/09,10:20,0.501,0.773,0.485,0.952,0.698,0.315,0.551,0.506,��쓌,10.2,��
2024/06/09,10:30,0.503,0.773,0.484,0.953,0.700,0.315,0.552,0.506,��쓌,9.6,��
2024/06/09,10:40,0.503,0.773,0.487,0.952,0.701,0.315,0.552,0.507,��쓌,11.9,��
2024/06/09,10:50,0.505,0.774,0.485,0.954,0.701,0.315,0.551,0.508,��쓌,9.7,��
2024/06/09,11:00,0.502,0.774,0.485,0.953,0.700,0.316,0.551,0.508,��쓌,8.4,��
2024/06/09,11:10,0.503,0.773,0.486,0.951,0.701,0.315,0.553,0.507,��쓌,10.5,��
2024/06/09,11:20,0.501,0.773,0.486,0.952,0.700,0.316,0.552,0.508,��쓌,8.2,��
2024/06/09,11:30,0.504,0.774,0.486,0.952,0.699,0.315,0.550,0.508,��쓌,11.3,��
2024/06/09,11:40,0.502,0.772,0.486,0.949,0.701,0.317,0.550,0.506,��쓌,9.7,��
2024/06/09,11:50,0.503,0.774,0.486,0.949,0.700,0.316,0.551,0.509,��쓌,10.3,��
2024/06/09,12:00,0.503,0.772,0.485,0.952,0.700,0.315,0.550,0.508,��쓌,10.5,��
2024/06/09,12:10,0.503,0.773,0.487,0.949,0.701,0.315,0.549,0.508,��쓌,12.0,��
2024/06/09,12:20,0.503,0.774,0.485,0.952,0.700,0.317,0.551,0.507,��쓌,11.1,��
2024/06/09,12:30,0.503,0.774,0.486,0.953,0.700,0.315,0.550,0.508,��쓌,11.1,��
2024/06/09,12:40,0.502,0.774,0.485,0.950,0.698,0.315,0.548,0.507,��쓌,11.9,��
2024/06/09,12:50,0.505,0.776,0.485,0.952,0.700,0.316,0.550,0.507,��쓌,11.6,��
2024/06/09,13:00,0.504,0.773,0.486,0.953,0.700,0.317,0.551,0.508,��쓌,11.6,��
2024/06/09,13:10,0.502,0.774,0.487,0.953,0.699,0.316,0.550,0.508,��,11.1,��
2024/06/09,13:20,0.503,0.775,0.486,0.952,0.701,0.314,0.548,0.508,��쓌,11.3,��
2024/06/09,13:30,0.506,0.773,0.487,0.953,0.700,0.316,0.549,0.507,��쓌,11.1,��
2024/06/09,13:40,0.504,0.773,0.487,0.954,0.702,0.315,0.549,0.507,��쓌,10.7,��
2024/06/09,13:50,0.504,0.775,0.486,0.952,0.702,0.317,0.550,0.508,��쓌,12.4,��
2024/06/09,14:00,0.504,0.773,0.487,0.952,0.700,0.316,0.548,0.507,��쓌,11.0,��
2024/06/09,14:10,0.503,0.772,0.486,0.951,0.702,0.315,0.550,0.508,��쓌,10.5,��
2024/06/09,14:20,0.505,0.774,0.488,0.952,0.700,0.316,0.549,0.508,��,11.3,��
2024/06/09,14:30,0.504,0.775,0.486,0.953,0.702,0.316,0.549,0.507,��쓌,10.3,��
2024/06/09,14:40,0.503,0.774,0.485,0.952,0.702,0.314,0.550,0.508,��쓌,10.5,��
2024/06/09,14:50,0.503,0.777,0.485,0.953,0.700,0.316,0.549,0.507,��쓌,10.9,��
2024/06/09,15:00,0.505,0.774,0.484,0.953,0.703,0.316,0.549,0.509,��,10.7,��
2024/06/09,15:10,0.503,0.776,0.485,0.955,0.701,0.317,0.550,0.506,��,9.6,��
2024/06/09,15:20,0.504,0.774,0.486,0.955,0.702,0.316,0.550,0.508,��,8.1,��
2024/06/09,15:30,0.503,0.775,0.486,0.953,0.700,0.316,0.551,0.507,��쓌,10.6,��
2024/06/09,15:40,0.504,0.776,0.487,0.954,0.701,0.316,0.550,0.508,��,8.7,��
2024/06/09,15:50,0.504,0.775,0.486,0.956,0.702,0.315,0.550,0.508,��쓌,8.7,��
2024/06/09,16:00,0.504,0.774,0.487,0.955,0.701,0.316,0.548,0.507,��쓌,8.3,��
2024/06/09,16:10,0.505,0.775,0.487,0.957,0.704,0.316,0.548,0.506,��,7.8,��
2024/06/09,16:20,0.504,0.773,0.486,0.956,0.703,0.316,0.549,0.507,��,9.7,��
2024/06/09,16:30,0.504,0.774,0.487,0.956,0.703,0.316,0.550,0.508,��,9.3,��
2024/06/09,16:40,0.502,0.774,0.486,0.957,0.701,0.318,0.549,0.508,��,10.2,��
2024/06/09,16:50,0.504,0.775,0.486,0.955,0.701,0.317,0.550,0.506,��,10.7,��
2024/06/09,17:00,0.505,0.772,0.487,0.955,0.701,0.315,0.548,0.508,��쓌,9.5,��
2024/06/09,17:10,0.504,0.773,0.486,0.958,0.701,0.316,0.549,0.507,��,9.8,��
2024/06/09,17:20,0.504,0.773,0.486,0.957,0.701,0.316,0.548,0.508,��,9.8,��
2024/06/09,17:30,0.504,0.775,0.486,0.957,0.701,0.315,0.549,0.508,��,9.5,��
2024/06/09,17:40,0.505,0.775,0.486,0.956,0.701,0.316,0.548,0.508,��,10.2,��
2024/06/09,17:50,0.504,0.776,0.485,0.957,0.702,0.316,0.548,0.508,��쓌,11.7,��
2024/06/09,18:00,0.503,0.774,0.485,0.957,0.701,0.315,0.550,0.508,��,10.9,��
2024/06/09,18:10,0.502,0.774,0.485,0.956,0.702,0.313,0.550,0.508,��,12.1,��
2024/06/09,18:20,0.502,0.774,0.484,0.958,0.702,0.315,0.551,0.509,��,10.5,��
2024/06/09,18:30,0.502,0.774,0.486,0.958,0.702,0.315,0.550,0.509,��,10.3,��
2024/06/09,18:40,0.503,0.775,0.486,0.957,0.703,0.315,0.552,0.508,��,10.3,��
2024/06/09,18:50,0.504,0.772,0.484,0.958,0.703,0.314,0.550,0.509,��,11.3,��
2024/06/09,19:00,0.503,0.774,0.486,0.958,0.701,0.315,0.552,0.511,��,10.7,��
2024/06/09,19:10,0.504,0.774,0.485,0.957,0.702,0.314,0.552,0.510,��,8.8,��
2024/06/09,19:20,0.505,0.777,0.485,0.958,0.700,0.315,0.551,0.511,��,8.2,��
2024/06/09,19:30,0.504,0.775,0.486,0.958,0.702,0.315,0.551,0.510,��,8.3,��
2024/06/09,19:40,0.504,0.775,0.486,0.960,0.703,0.316,0.551,0.510,��,8.9,��
2024/06/09,19:50,0.504,0.776,0.487,0.959,0.704,0.316,0.552,0.511,��,7.7,��
2024/06/09,20:00,0.503,0.776,0.487,0.958,0.701,0.316,0.552,0.511,��,8.6,��
2024/06/09,20:10,0.504,0.775,0.487,0.958,0.706,0.316,0.551,0.511,��,8.4,��
2024/06/09,20:20,0.504,0.776,0.486,0.957,0.703,0.316,0.551,0.511,��,8.4,��
2024/06/09,20:30,0.504,0.775,0.487,0.958,0.703,0.316,0.551,0.510,��,9.1,��
2024/06/09,20:40,0.503,0.778,0.486,0.961,0.703,0.316,0.552,0.511,��,9.2,��
2024/06/09,20:50,0.503,0.775,0.485,0.959,0.704,0.315,0.552,0.509,��,9.2,��
2024/06/09,21:00,0.504,0.774,0.487,0.960,0.703,0.316,0.551,0.510,��,8.1,��
2024/06/09,21:10,0.503,0.776,0.485,0.957,0.703,0.316,0.550,0.508,��,7.7,��
2024/06/09,21:20,0.503,0.777,0.487,0.957,0.704,0.316,0.552,0.510,��,7.4,��
2024/06/09,21:30,0.503,0.776,0.487,0.956,0.703,0.315,0.549,0.510,��,8.1,��
2024/06/09,21:40,0.504,0.777,0.487,0.958,0.705,0.316,0.550,0.510,��,6.7,��
2024/06/09,21:50,0.503,0.775,0.486,0.959,0.704,0.315,0.552,0.509,��,8.3,��
2024/06/09,22:00,0.504,0.775,0.488,0.957,0.706,0.317,0.552,0.511,��,7.9,��
2024/06/09,22:10,0.502,0.778,0.488,0.957,0.705,0.316,0.550,0.510,��,7.1,��
2024/06/09,22:20,0.505,0.777,0.486,0.957,0.705,0.316,0.552,0.510,��,7.4,��
2024/06/09,22:30,0.504,0.776,0.488,0.958,0.706,0.317,0.552,0.511,��,7.1,��
2024/06/09,22:40,0.504,0.776,0.487,0.956,0.702,0.315,0.552,0.512,��,8.3,��
2024/06/09,22:50,0.504,0.776,0.488,0.956,0.703,0.317,0.550,0.510,��,7.3,��
2024/06/09,23:00,0.504,0.776,0.488,0.959,0.705,0.316,0.553,0.512,��,6.9,��
2024/06/09,23:10,0.504,0.776,0.487,0.958,0.703,0.316,0.552,0.509,��,8.3,��
2024/06/09,23:20,0.504,0.777,0.486,0.958,0.705,0.315,0.553,0.510,��,8.8,��
2024/06/09,23:30,0.504,0.775,0.486,0.959,0.705,0.315,0.552,0.509,��쓌,8.4,��
2024/06/09,23:40,0.504,0.776,0.486,0.957,0.703,0.315,0.551,0.510,��,8.1,��
2024/06/09,23:50,0.503,0.775,0.487,0.957,0.702,0.315,0.551,0.510,��,7.6,��
